[[{"header":{"parameterUnit":"m.s-1","parameterCategory":2,"la1":30.2991,"la2":30.254,"lo1":-89.0895,"lo2":-89.0444,"dy":0.0017,"dx":0.0017,"nx":28,"ny":28,"refTime":"2025-08-16T03:00:00:Z","depth":"0","parameterNumber":2,"parameterNumberName":"U-component_of_CURRENTS"},"data":[0,0,0,0,0,0,0,0,0,0,0,0,0,0,0,0,0,0,0,0,0,0,0,0,0,0,0,0,0,0,0,0,0,0,0,0,0,0,0,0,0,0,0,0,0,0,0,0,0,0,0,0,0,0,0,0,0,0,-0.3119,-0.3119,0,-0.3049,-0.3048,-0.3047,-0.2919,-0.2917,-0.2915,-0.2913,-0.2796,-0.2795,-0.2794,0,0,0,0,0,0,0,0,0,0,0,0,0,-0.3036,-0.3038,-0.3119,-0.3119,-0.3118,-0.3049,-0.3048,-0.3046,-0.2919,-0.2917,-0.2914,-0.2912,-0.2797,-0.2795,-0.2794,0,0,0,0,0,0,0,0,0,0,0,0,0,-0.3026,-0.3039,-0.3119,-0.305,-0.3043,-0.3049,-0.3048,-0.3046,-0.292,-0.2917,-0.2914,-0.2911,-0.2797,-0.2796,-0.2794,-0.2844,0,0,-0.2788,-0.2788,0,0,0,0,0,0,0,0,-0.3026,-0.3028,-0.306,-0.3054,-0.3047,-0.2993,-0.2976,-0.2978,-0.2921,-0.2962,-0.2913,-0.2909,-0.2863,-0.2856,-0.2844,-0.2839,-0.2834,-0.2788,-0.2787,-0.2786,-0.2786,0,0,0,0,0,0,0,-0.3027,-0.303,-0.3087,-0.306,-0.3052,-0.2985,-0.2981,-0.2975,-0.2926,-0.2958,-0.295,-0.295,-0.2858,-0.2846,-0.284,-0.2832,-0.2788,-0.2787,-0.2785,-0.2785,-0.2741,-0.2741,0,0,0,0,0,0,-0.3055,-0.3032,-0.3089,-0.3085,-0.3034,-0.299,-0.2985,-0.301,-0.2927,-0.2913,-0.2953,-0.2944,-0.285,-0.2842,-0.2836,-0.2785,-0.2786,-0.2785,-0.2784,-0.2741,-0.2741,-0.2741,0,0,0,0,0,0,-0.3054,-0.3062,-0.3092,-0.3058,-0.3058,-0.2996,-0.3024,-0.301,-0.298,-0.2924,-0.2908,-0.2934,-0.2848,-0.2838,-0.2793,-0.2784,-0.2784,-0.2782,-0.2741,-0.2741,-0.2741,-0.2753,0,0,0,0,0,0,-0.3052,-0.3062,-0.3079,-0.3062,-0.3061,-0.3068,-0.3027,-0.3011,-0.2988,-0.2975,-0.2905,-0.2891,-0.2845,-0.2796,-0.2792,-0.2781,-0.2781,-0.2741,-0.2741,-0.2741,-0.2753,-0.2753,-0.2754,0,0,0,0,0,-0.305,-0.3086,-0.3081,-0.3087,-0.3091,-0.3069,-0.306,-0.3002,-0.299,-0.2966,-0.2916,-0.2892,-0.2791,-0.2795,-0.2789,-0.2778,-0.2741,-0.2741,-0.2741,-0.2753,-0.2753,-0.2754,0,0,0,0,0,0,-0.3066,-0.3077,-0.307,-0.3111,-0.308,-0.3047,-0.3031,-0.3012,-0.296,-0.2948,-0.2895,-0.2878,-0.2836,-0.2816,-0.2821,-0.2766,-0.2763,-0.2761,-0.2773,-0.2774,-0.2774,-0.2783,-0.2779,0,0,0,0,0,-0.3084,-0.3104,-0.3095,-0.3122,-0.3112,-0.3078,-0.3064,-0.3031,-0.2993,-0.2966,-0.2922,-0.2878,-0.284,-0.2811,-0.2777,-0.2758,-0.2696,-0.2746,-0.2747,-0.2748,-0.2751,-0.2627,-0.2615,-0.274,-0.274,-0.274,0,0,-0.3099,-0.3108,-0.312,-0.3124,-0.31,-0.3076,-0.3058,-0.3038,-0.301,-0.2968,-0.2914,-0.2885,-0.2838,-0.2794,-0.2775,-0.2768,-0.268,-0.2747,-0.2748,-0.2751,-0.2625,-0.2612,-0.2601,-0.274,-0.274,-0.274,0,0,-0.3114,-0.3146,-0.3146,-0.3128,-0.3101,-0.308,-0.3078,-0.3044,-0.301,-0.2978,-0.2933,-0.2895,-0.2847,-0.2796,-0.2771,-0.2765,-0.2693,-0.276,-0.2761,-0.2639,-0.2627,-0.2616,-0.2521,-0.2501,-0.2752,-0.2752,-0.2752,0,-0.3111,-0.3128,-0.3138,-0.3121,-0.3101,-0.3083,-0.3057,-0.3036,-0.2988,-0.2961,-0.2954,-0.2866,-0.2845,-0.2772,-0.2775,-0.2765,-0.2687,-0.276,-0.2637,-0.2624,-0.2612,-0.2517,-0.2495,-0.2753,-0.2753,-0.2753,-0.2753,0,-0.3107,-0.3113,-0.3112,-0.3085,-0.3073,-0.3047,-0.3028,-0.3005,-0.2986,-0.2955,-0.2891,-0.2852,-0.2788,-0.2788,-0.2789,-0.2703,-0.2672,-0.2654,-0.2631,-0.26,-0.2503,-0.2479,-0.2754,-0.2753,-0.2753,-0.2753,0,0,-0.3066,-0.3097,-0.3087,-0.3048,-0.3046,-0.3009,-0.3008,-0.296,-0.2904,-0.289,-0.2803,-0.2797,-0.2775,-0.2748,-0.2727,-0.2655,-0.2533,-0.2632,-0.2625,-0.2532,-0.2262,-0.2206,-0.2175,-0.2473,-0.2469,-0.2466,-0.2227,0,-0.302,-0.2986,-0.3035,-0.2969,-0.2921,-0.2943,-0.2918,-0.2889,-0.2857,-0.2771,-0.2756,-0.2672,-0.2754,-0.2701,-0.2653,-0.2549,-0.2472,-0.26,-0.2313,-0.2305,-0.2252,-0.2146,-0.206,-0.1835,-0.2204,-0.22,-0.2197,0,-0.2939,-0.2929,-0.2886,-0.2852,-0.2836,-0.2813,-0.2739,-0.2715,-0.2657,-0.2633,-0.2594,-0.2569,-0.2503,-0.2547,-0.2382,-0.2451,-0.2375,-0.2306,-0.2293,-0.2222,-0.2205,-0.1926,-0.1778,-0.1778,-0.216,-0.2163,-0.2166,0,-0.279,-0.2789,-0.2746,-0.2736,-0.2728,-0.2708,-0.2685,-0.2651,-0.2587,-0.2517,-0.245,-0.2399,-0.2315,-0.2235,-0.2198,-0.2246,-0.1982,-0.2008,-0.1887,-0.1883,-0.1745,-0.1735,-0.1556,-0.1861,-0.1862,-0.1862,-0.1863,0,-0.2657,-0.2605,-0.2665,-0.2617,-0.2507,-0.2572,-0.2445,-0.2431,-0.2386,-0.2296,-0.2343,-0.2252,-0.2228,-0.2122,-0.2097,-0.192,-0.1894,-0.1857,-0.1797,-0.175,-0.1743,-0.169,-0.1741,-0.1853,-0.1855,-0.1857,-0.1859,0,-0.2439,-0.2518,-0.2415,-0.2425,-0.2417,-0.2306,-0.2261,-0.2196,-0.2192,-0.2072,-0.205,-0.2056,-0.1946,-0.1919,-0.1759,-0.1746,-0.1563,-0.1556,-0.1532,-0.1474,-0.1371,-0.1428,-0.1201,-0.1167,-0.1341,-0.1338,-0.1335,0,-0.2305,-0.2249,-0.2209,-0.2167,-0.2161,-0.2061,-0.2024,-0.2042,-0.2011,-0.1964,-0.1909,-0.181,-0.1733,-0.1499,-0.1451,-0.1319,-0.1396,-0.1181,-0.1273,-0.1318,-0.1336,-0.1408,-0.1404,-0.109,-0.1086,-0.1082,-0.1079,0,-0.2009,-0.2018,-0.1965,-0.189,-0.1845,-0.1771,-0.1745,-0.1694,-0.1764,-0.1685,-0.1625,-0.1554,-0.1406,-0.1245,-0.1124,-0.107,-0.1157,-0.1102,-0.1115,-0.1092,-0.1184,-0.1138,-0.1336,-0.1047,-0.105,-0.1053,-0.1055,-0.1056,-0.1766,-0.1672,-0.1665,-0.1581,-0.1555,-0.1537,-0.1445,-0.1476,-0.139,-0.1299,-0.1333,-0.1121,-0.1065,-0.0873,-0.0852,-0.0784,-0.0888,-0.0773,-0.0824,-0.0884,-0.089,-0.1045,-0.0725,-0.0726,-0.0727,-0.0728,-0.0729,0,-0.1473,-0.1467,-0.1382,-0.1325,-0.1274,-0.133,-0.1316,-0.1251,-0.1146,-0.1017,-0.0889,-0.0618,-0.0535,-0.0537,-0.0539,-0.0527,-0.0563,-0.0541,-0.0623,-0.0621,-0.0685,-0.0718,-0.0421,-0.0421,-0.0421,-0.0421,-0.0421,-0.0421,-0.1331,-0.1225,-0.1232,-0.1099,-0.1085,-0.1005,-0.0987,-0.0893,-0.0785,-0.0477,-0.0224,-0.0085,-0.0145,-0.0347,-0.0437,-0.0437,-0.048,-0.0449,-0.0513,-0.0589,-0.0617,-0.0643,-0.0684,-0.0385,-0.0385,-0.041,-0.0411,-0.0411]},{"header":{"parameterUnit":"m.s-1","parameterCategory":2,"la1":30.2991,"la2":30.254,"lo1":-89.0895,"lo2":-89.0444,"dy":0.0017,"dx":0.0017,"nx":28,"ny":28,"refTime":"2025-08-16T03:00:00:Z","depth":"0","parameterNumber":3,"parameterNumberName":"V-component_of_CURRENTS"},"data":[0,0,0,0,0,0,0,0,0,0,0,0,0,0,0,0,0,0,0,0,0,0,0,0,0,0,0,0,0,0,0,0,0,0,0,0,0,0,0,0,0,0,0,0,0,0,0,0,0,0,0,0,0,0,0,0,0,0,-0.0483,-0.0482,0,-0.0442,-0.0442,-0.0441,-0.0323,-0.032,-0.0318,-0.0315,-0.0178,-0.0177,-0.0175,0,0,0,0,0,0,0,0,0,0,0,0,0,-0.0526,-0.0525,-0.0483,-0.0482,-0.0482,-0.0442,-0.0442,-0.0441,-0.0323,-0.032,-0.0317,-0.0314,-0.0178,-0.0177,-0.0175,0,0,0,0,0,0,0,0,0,0,0,0,0,-0.0498,-0.0525,-0.0483,-0.0419,-0.0412,-0.0442,-0.0442,-0.0441,-0.0324,-0.032,-0.0316,-0.0313,-0.0179,-0.0177,-0.0175,-0.024,0,0,-0.0169,-0.0168,0,0,0,0,0,0,0,0,-0.05,-0.0496,-0.0428,-0.0423,-0.0416,-0.0384,-0.0406,-0.0369,-0.0325,-0.0357,-0.0315,-0.0311,-0.0241,-0.0234,-0.0235,-0.0233,-0.0227,-0.0169,-0.0168,-0.0167,-0.0167,0,0,0,0,0,0,0,-0.0502,-0.0498,-0.0466,-0.0428,-0.0421,-0.0415,-0.0406,-0.04,-0.0319,-0.0354,-0.0345,-0.0343,-0.0236,-0.0238,-0.0231,-0.0225,-0.0169,-0.0167,-0.0166,-0.0165,-0.0227,-0.0229,0,0,0,0,0,0,-0.0508,-0.05,-0.0467,-0.0465,-0.045,-0.0417,-0.0407,-0.0398,-0.0321,-0.0306,-0.0346,-0.0338,-0.0243,-0.0233,-0.0226,-0.024,-0.0167,-0.0165,-0.0164,-0.0224,-0.0227,-0.023,0,0,0,0,0,0,-0.0509,-0.0506,-0.0469,-0.0482,-0.0477,-0.042,-0.0411,-0.0399,-0.0381,-0.0316,-0.0298,-0.0337,-0.0239,-0.0228,-0.0226,-0.0235,-0.0164,-0.0163,-0.0221,-0.0225,-0.0229,-0.0305,0,0,0,0,0,0,-0.0511,-0.0506,-0.0515,-0.0482,-0.0476,-0.0502,-0.0414,-0.0401,-0.0387,-0.0374,-0.0304,-0.0288,-0.0236,-0.0229,-0.0224,-0.0231,-0.0161,-0.0217,-0.0223,-0.0228,-0.0299,-0.0311,-0.0322,0,0,0,0,0,-0.0512,-0.0549,-0.0515,-0.0512,-0.0485,-0.0504,-0.0503,-0.0448,-0.039,-0.0411,-0.0357,-0.0289,-0.0258,-0.0231,-0.0224,-0.023,-0.0215,-0.0221,-0.0227,-0.0294,-0.0309,-0.0322,0,0,0,0,0,0,-0.058,-0.054,-0.0501,-0.0524,-0.0517,-0.0484,-0.0502,-0.0459,-0.0436,-0.0412,-0.0331,-0.0316,-0.0316,-0.0285,-0.0257,-0.027,-0.0224,-0.0229,-0.0277,-0.0291,-0.0302,-0.0279,-0.016,0,0,0,0,0,-0.0599,-0.0607,-0.0573,-0.0594,-0.059,-0.0544,-0.0545,-0.0509,-0.048,-0.0463,-0.0416,-0.0372,-0.0347,-0.0325,-0.0311,-0.0325,-0.0252,-0.0328,-0.0339,-0.0349,-0.033,-0.0222,-0.0219,-0.0251,-0.0251,-0.0251,0,0,-0.0632,-0.0612,-0.0616,-0.0608,-0.059,-0.0611,-0.0535,-0.0546,-0.0547,-0.0457,-0.0454,-0.0418,-0.0365,-0.0373,-0.0369,-0.0337,-0.0316,-0.0357,-0.0364,-0.034,-0.0227,-0.0223,-0.0219,-0.0255,-0.0254,-0.0254,0,0,-0.0719,-0.0682,-0.072,-0.0718,-0.0704,-0.0674,-0.0678,-0.0651,-0.0618,-0.0634,-0.0552,-0.052,-0.0511,-0.0451,-0.0423,-0.0498,-0.0387,-0.0503,-0.0524,-0.042,-0.0414,-0.0408,-0.0357,-0.0345,-0.0498,-0.0498,-0.0498,0,-0.0763,-0.0778,-0.0743,-0.0779,-0.0768,-0.0703,-0.0732,-0.0718,-0.0693,-0.0653,-0.0648,-0.057,-0.0541,-0.0478,-0.0511,-0.0514,-0.0451,-0.0467,-0.0427,-0.0419,-0.0412,-0.036,-0.0346,-0.0502,-0.0502,-0.0501,-0.0501,0,-0.0868,-0.0876,-0.0903,-0.0901,-0.0905,-0.092,-0.0879,-0.0867,-0.0817,-0.0774,-0.0721,-0.0679,-0.0605,-0.0614,-0.0589,-0.0521,-0.0497,-0.0456,-0.0376,-0.0411,-0.0358,-0.0342,-0.0509,-0.0507,-0.0506,-0.0505,0,0,-0.0957,-0.0968,-0.0976,-0.0958,-0.095,-0.0948,-0.0955,-0.0907,-0.0852,-0.0841,-0.0763,-0.0748,-0.0675,-0.064,-0.0585,-0.0515,-0.0447,-0.0472,-0.0465,-0.0395,-0.0241,-0.0235,-0.0217,-0.0378,-0.0375,-0.0373,-0.024,0,-0.1032,-0.1093,-0.1084,-0.1111,-0.1109,-0.1046,-0.1035,-0.0985,-0.0928,-0.0853,-0.0765,-0.0698,-0.0696,-0.0643,-0.0575,-0.0465,-0.0401,-0.0488,-0.024,-0.0234,-0.0198,-0.0196,-0.0151,-0.0027,-0.0224,-0.0221,-0.0219,0,-0.1114,-0.1127,-0.1174,-0.112,-0.1114,-0.1127,-0.1025,-0.1011,-0.0899,-0.0848,-0.0757,-0.068,-0.0579,-0.0572,-0.0387,-0.0435,-0.0352,-0.028,-0.0271,-0.0214,-0.0195,-0.0017,0.0011,0.011,-0.0193,-0.0195,-0.0197,0,-0.1129,-0.1166,-0.118,-0.1178,-0.1145,-0.1127,-0.1088,-0.0999,-0.094,-0.0824,-0.0762,-0.063,-0.0541,-0.0414,-0.0304,-0.0321,-0.0098,-0.009,-0.0009,-0.0009,0.0105,0.0109,0.0293,0.0052,0.0052,0.0052,0.0051,0,-0.1168,-0.1174,-0.1183,-0.1187,-0.1147,-0.1129,-0.106,-0.1002,-0.0907,-0.0821,-0.0742,-0.0639,-0.049,-0.0357,-0.0267,-0.0093,-0.0059,0.0001,0.0045,0.0067,0.0067,0.022,0.024,0.0056,0.0055,0.0054,0.0054,0,-0.1164,-0.1192,-0.118,-0.1163,-0.1152,-0.1113,-0.1042,-0.0993,-0.0913,-0.08,-0.0761,-0.0612,-0.0442,-0.0314,-0.01,-0.0034,0.0194,0.0169,0.0148,0.0187,0.0339,0.035,0.0569,0.0652,0.0294,0.0295,0.0296,0,-0.1158,-0.116,-0.1147,-0.1143,-0.1137,-0.109,-0.1057,-0.0987,-0.0942,-0.0775,-0.0721,-0.054,-0.0385,-0.0104,0.0042,0.0218,0.0281,0.0347,0.0322,0.037,0.0417,0.0412,0.0466,0.0423,0.0425,0.0427,0.0428,0,-0.1106,-0.1108,-0.1104,-0.1106,-0.1095,-0.1063,-0.1021,-0.098,-0.0892,-0.077,-0.0586,-0.0444,-0.02,0.0039,0.0218,0.0315,0.0429,0.0384,0.0486,0.0577,0.0541,0.0633,0.0264,0.0443,0.0441,0.044,0.0439,0.0439,-0.1039,-0.1032,-0.1048,-0.1045,-0.1047,-0.1043,-0.0987,-0.0923,-0.0799,-0.0581,-0.0475,-0.0178,0.0088,0.0367,0.0427,0.0603,0.0565,0.0681,0.0701,0.0697,0.076,0.038,0.0571,0.0571,0.057,0.057,0.0569,0,-0.0951,-0.0983,-0.0987,-0.1004,-0.1017,-0.1026,-0.0968,-0.0871,-0.0691,-0.0452,-0.0211,0.0246,0.0478,0.0651,0.085,0.0932,0.0946,0.098,0.1014,0.1063,0.0798,0.0785,0.097,0.097,0.097,0.097,0.097,0.097,-0.0909,-0.092,-0.0953,-0.0976,-0.0996,-0.0963,-0.0918,-0.0715,-0.0508,-0.0061,0.0277,0.0537,0.0825,0.1044,0.1205,0.122,0.1334,0.1294,0.1357,0.1182,0.1155,0.113,0.1127,0.1381,0.1382,0.1643,0.1645,0.1647]}],[{"header":{"parameterUnit":"m.s-1","parameterCategory":2,"la1":30.2991,"la2":30.254,"lo1":-89.0895,"lo2":-89.0444,"dy":0.0017,"dx":0.0017,"nx":28,"ny":28,"refTime":"2025-08-16T03:00:00:Z","depth":"2","parameterNumber":2,"parameterNumberName":"U-component_of_CURRENTS"},"data":[0,0,0,0,0,0,0,0,0,0,0,0,0,0,0,0,0,0,0,0,0,0,0,0,0,0,0,0,0,0,0,0,0,0,0,0,0,0,0,0,0,0,0,0,0,0,0,0,0,0,0,0,0,0,0,0,0,0,-0.1969,-0.197,0,-0.2061,-0.2063,-0.2064,-0.2107,-0.2107,-0.2106,-0.2106,-0.2284,-0.2289,-0.2294,0,0,0,0,0,0,0,0,0,0,0,0,0,-0.1949,-0.1949,-0.1969,-0.197,-0.197,-0.2061,-0.2063,-0.2065,-0.2108,-0.2107,-0.2106,-0.2105,-0.2282,-0.2288,-0.2295,0,0,0,0,0,0,0,0,0,0,0,0,0,-0.1997,-0.1949,-0.1969,-0.1998,-0.2001,-0.206,-0.2063,-0.2065,-0.2108,-0.2107,-0.2106,-0.2105,-0.228,-0.2288,-0.2296,-0.2365,0,0,-0.232,-0.2324,0,0,0,0,0,0,0,0,-0.1994,-0.1998,-0.1993,-0.1996,-0.1999,-0.2066,-0.2121,-0.2167,-0.2108,-0.2074,-0.2106,-0.2104,-0.2215,-0.2229,-0.2256,-0.2373,-0.2381,-0.2321,-0.2326,-0.2329,-0.2331,0,0,0,0,0,0,0,-0.199,-0.1995,-0.2012,-0.1993,-0.1997,-0.2046,-0.2051,-0.213,-0.2156,-0.2077,-0.2079,-0.2079,-0.2219,-0.2248,-0.2261,-0.2384,-0.2321,-0.2328,-0.2333,-0.2336,-0.2505,-0.2505,0,0,0,0,0,0,-0.1961,-0.1991,-0.2009,-0.2014,-0.1987,-0.2046,-0.2053,-0.2051,-0.2153,-0.2165,-0.208,-0.208,-0.2235,-0.2251,-0.2267,-0.23,-0.2329,-0.2337,-0.2341,-0.2506,-0.2505,-0.2505,0,0,0,0,0,0,-0.196,-0.1961,-0.2005,-0.2,-0.2008,-0.2046,-0.2045,-0.2053,-0.211,-0.2153,-0.2168,-0.2129,-0.2235,-0.2256,-0.2314,-0.2309,-0.234,-0.2348,-0.2506,-0.2506,-0.2505,-0.2401,0,0,0,0,0,0,-0.1959,-0.1961,-0.1968,-0.1998,-0.2007,-0.204,-0.2045,-0.2055,-0.2106,-0.211,-0.2201,-0.2214,-0.2236,-0.2301,-0.2322,-0.2321,-0.2354,-0.2506,-0.2506,-0.2505,-0.2405,-0.2397,-0.239,0,0,0,0,0,-0.1958,-0.1935,-0.1967,-0.197,-0.2009,-0.204,-0.2051,-0.2079,-0.211,-0.2131,-0.2169,-0.2213,-0.2312,-0.2308,-0.2332,-0.2333,-0.2507,-0.2506,-0.2505,-0.2408,-0.2398,-0.239,0,0,0,0,0,0,-0.1921,-0.1938,-0.1974,-0.1958,-0.2007,-0.2044,-0.2058,-0.2104,-0.2159,-0.2164,-0.2221,-0.2237,-0.2283,-0.2332,-0.2326,-0.2378,-0.2414,-0.2418,-0.2332,-0.2324,-0.2317,-0.2305,-0.2361,0,0,0,0,0,-0.1921,-0.1909,-0.1958,-0.1949,-0.1977,-0.2041,-0.2067,-0.2094,-0.2134,-0.216,-0.2205,-0.2256,-0.2299,-0.2329,-0.2374,-0.2423,-0.242,-0.2436,-0.2428,-0.2422,-0.2427,-0.2376,-0.2363,-0.2503,-0.2503,-0.2503,0,0,-0.1906,-0.1909,-0.1908,-0.1943,-0.1985,-0.2013,-0.2055,-0.209,-0.2106,-0.2173,-0.2202,-0.2247,-0.2309,-0.233,-0.2357,-0.237,-0.238,-0.2421,-0.2414,-0.2424,-0.2374,-0.236,-0.2347,-0.2502,-0.2502,-0.2502,0,0,-0.1866,-0.1882,-0.1881,-0.1915,-0.1969,-0.1999,-0.2021,-0.2078,-0.21,-0.215,-0.2176,-0.22,-0.2301,-0.2293,-0.232,-0.2314,-0.2347,-0.2352,-0.2305,-0.2253,-0.2241,-0.2229,-0.2194,-0.2181,-0.2342,-0.2342,-0.2342,0,-0.1865,-0.1854,-0.1889,-0.1904,-0.192,-0.1997,-0.2018,-0.2051,-0.2109,-0.2115,-0.2146,-0.2217,-0.227,-0.2267,-0.2259,-0.2295,-0.2285,-0.2327,-0.2239,-0.2228,-0.2219,-0.2186,-0.2172,-0.2337,-0.2337,-0.2338,-0.2338,0,-0.1835,-0.1842,-0.1838,-0.1876,-0.1905,-0.1922,-0.1973,-0.1997,-0.2044,-0.2071,-0.2093,-0.2132,-0.2169,-0.2185,-0.2237,-0.2197,-0.2219,-0.2233,-0.225,-0.2197,-0.2167,-0.2155,-0.2329,-0.2331,-0.2333,-0.2334,0,0,-0.1802,-0.1819,-0.1824,-0.1839,-0.1889,-0.1907,-0.192,-0.1952,-0.1962,-0.1998,-0.1995,-0.2044,-0.2068,-0.2099,-0.2134,-0.2101,-0.2026,-0.215,-0.2149,-0.2097,-0.1925,-0.1843,-0.1822,-0.2024,-0.2022,-0.202,-0.1926,0,-0.1788,-0.1786,-0.1799,-0.181,-0.1824,-0.1867,-0.1875,-0.1905,-0.1938,-0.1945,-0.1961,-0.1987,-0.2033,-0.2055,-0.2021,-0.2054,-0.1993,-0.2052,-0.2003,-0.2002,-0.1918,-0.1804,-0.1694,-0.1592,-0.1914,-0.1912,-0.1911,0,-0.1763,-0.1763,-0.1764,-0.1776,-0.1791,-0.18,-0.1818,-0.1839,-0.1857,-0.1885,-0.1884,-0.1919,-0.1902,-0.1942,-0.1897,-0.1941,-0.1924,-0.1922,-0.1918,-0.1872,-0.1895,-0.1703,-0.1558,-0.189,-0.1892,-0.1893,-0.1895,0,-0.1715,-0.1732,-0.1721,-0.1728,-0.1762,-0.176,-0.1784,-0.1813,-0.1831,-0.1838,-0.1853,-0.1835,-0.1844,-0.181,-0.1828,-0.1866,-0.1764,-0.1804,-0.1689,-0.1684,-0.1598,-0.1588,-0.1713,-0.1713,-0.1713,-0.1714,-0.1714,0,-0.167,-0.1665,-0.1696,-0.1692,-0.1692,-0.1729,-0.1733,-0.1757,-0.1783,-0.1788,-0.1818,-0.1802,-0.1815,-0.1777,-0.1778,-0.1688,-0.1706,-0.1651,-0.1634,-0.1558,-0.1547,-0.1829,-0.1844,-0.171,-0.1711,-0.1711,-0.1712,0,-0.1614,-0.163,-0.1626,-0.1656,-0.1666,-0.1671,-0.1715,-0.1713,-0.1756,-0.1755,-0.1758,-0.1773,-0.1716,-0.1694,-0.1641,-0.1613,-0.1544,-0.1495,-0.1414,-0.1387,-0.1517,-0.1529,-0.1357,-0.1353,-0.1349,-0.1346,-0.1344,0,-0.1579,-0.1569,-0.1601,-0.1595,-0.1605,-0.1623,-0.1631,-0.169,-0.1694,-0.1725,-0.1709,-0.1669,-0.1607,-0.1489,-0.1412,-0.1315,-0.1409,-0.1174,-0.1206,-0.1469,-0.1471,-0.1488,-0.1503,-0.1057,-0.1052,-0.1048,-0.1045,0,-0.1513,-0.1529,-0.1524,-0.1522,-0.1522,-0.1537,-0.1554,-0.1558,-0.1614,-0.1614,-0.1582,-0.1534,-0.1417,-0.1255,-0.1132,-0.108,-0.1187,-0.1092,-0.1344,-0.1166,-0.1178,-0.1184,-0.121,-0.1011,-0.1015,-0.1017,-0.1019,-0.1021,-0.1457,-0.144,-0.1428,-0.1418,-0.1425,-0.1415,-0.1381,-0.1413,-0.1404,-0.1375,-0.142,-0.1308,-0.1251,-0.0987,-0.0894,-0.0819,-0.0916,-0.0899,-0.0913,-0.0932,-0.0915,-0.092,-0.0704,-0.0705,-0.0707,-0.0708,-0.0709,0,-0.1355,-0.1332,-0.1318,-0.1288,-0.1252,-0.1299,-0.1288,-0.1231,-0.1176,-0.1199,-0.1162,-0.0978,-0.0843,-0.0781,-0.0598,-0.0552,-0.0585,-0.054,-0.0598,-0.063,-0.0659,-0.0633,-0.0344,-0.0343,-0.0342,-0.0342,0,0,-0.1288,-0.1221,-0.1212,-0.1108,-0.1092,-0.0991,-0.0958,-0.0915,-0.0896,-0.0827,-0.0783,-0.0844,-0.0785,-0.0596,-0.0523,-0.0406,-0.0529,-0.0379,-0.0669,-0.0772,-0.0801,-0.0853,-0.0846,0,0,0,0,0]},{"header":{"parameterUnit":"m.s-1","parameterCategory":2,"la1":30.2991,"la2":30.254,"lo1":-89.0895,"lo2":-89.0444,"dy":0.0017,"dx":0.0017,"nx":28,"ny":28,"refTime":"2025-08-16T03:00:00:Z","depth":"2","parameterNumber":3,"parameterNumberName":"V-component_of_CURRENTS"},"data":[0,0,0,0,0,0,0,0,0,0,0,0,0,0,0,0,0,0,0,0,0,0,0,0,0,0,0,0,0,0,0,0,0,0,0,0,0,0,0,0,0,0,0,0,0,0,0,0,0,0,0,0,0,0,0,0,0,0,-0.0544,-0.0544,0,-0.0435,-0.0433,-0.0431,-0.0388,-0.0389,-0.039,-0.0391,0.0014,0.0026,0.0037,0,0,0,0,0,0,0,0,0,0,0,0,0,-0.0588,-0.0588,-0.0544,-0.0543,-0.0543,-0.0435,-0.0433,-0.0431,-0.0388,-0.0389,-0.039,-0.0391,0.001,0.0024,0.0038,0,0,0,0,0,0,0,0,0,0,0,0,0,-0.0527,-0.0588,-0.0544,-0.0513,-0.051,-0.0436,-0.0433,-0.043,-0.0388,-0.0389,-0.0391,-0.0392,0.0006,0.0023,0.004,0.0175,0,0,0.0093,0.0101,0,0,0,0,0,0,0,0,-0.0531,-0.0525,-0.0519,-0.0515,-0.0512,-0.0433,-0.0301,-0.0216,-0.0387,-0.0427,-0.0391,-0.0392,-0.0111,-0.0084,-0.0055,0.0194,0.0211,0.0095,0.0105,0.0113,0.0118,0,0,0,0,0,0,0,-0.0535,-0.0528,-0.0494,-0.0518,-0.0514,-0.0462,-0.0455,-0.0284,-0.0252,-0.0424,-0.0422,-0.042,-0.0106,-0.0072,-0.0045,0.0217,0.0094,0.011,0.0121,0.0127,0.064,0.0643,0,0,0,0,0,0,-0.0567,-0.0533,-0.0498,-0.0492,-0.0532,-0.0461,-0.0453,-0.0451,-0.026,-0.0237,-0.0419,-0.0419,-0.0102,-0.0065,-0.003,0.0107,0.0113,0.0129,0.0139,0.0637,0.064,0.0644,0,0,0,0,0,0,-0.0568,-0.0565,-0.0502,-0.0515,-0.0504,-0.046,-0.0457,-0.0448,-0.0409,-0.0261,-0.0231,-0.039,-0.0101,-0.0054,0.0075,0.0124,0.0137,0.0153,0.0633,0.0638,0.0642,0.0404,0,0,0,0,0,0,-0.057,-0.0566,-0.0565,-0.0517,-0.0505,-0.0466,-0.0457,-0.0445,-0.0409,-0.0407,-0.0224,-0.019,-0.0099,0.0047,0.0092,0.0149,0.0166,0.0629,0.0635,0.0641,0.0408,0.04,0.0393,0,0,0,0,0,-0.0572,-0.0573,-0.0566,-0.0561,-0.0509,-0.0466,-0.0453,-0.0422,-0.0407,-0.0389,-0.0302,-0.0196,0.012,0.0061,0.0114,0.0177,0.0626,0.0633,0.064,0.0411,0.0402,0.0394,0,0,0,0,0,0,-0.0588,-0.0568,-0.0559,-0.0553,-0.0517,-0.0462,-0.0444,-0.0413,-0.0329,-0.0319,-0.0184,-0.0143,0.0003,0.0136,0.0069,0.0353,0.0407,0.0424,0.0216,0.0209,0.0202,0.0169,0.0181,0,0,0,0,0,-0.0594,-0.0594,-0.0557,-0.0552,-0.0536,-0.0482,-0.0457,-0.0433,-0.0363,-0.0329,-0.0217,-0.0065,0.008,0.0166,0.0317,0.0463,0.051,0.0557,0.0549,0.0541,0.0557,0.057,0.0561,0.0667,0.0667,0.0667,0,0,-0.0598,-0.0589,-0.0587,-0.0556,-0.0523,-0.0493,-0.0468,-0.0433,-0.0401,-0.0285,-0.0199,-0.0083,0.0114,0.0244,0.033,0.0354,0.0541,0.055,0.054,0.0562,0.0576,0.0564,0.0553,0.0672,0.0671,0.067,0,0,-0.0604,-0.0598,-0.0592,-0.0566,-0.0529,-0.0498,-0.0488,-0.0427,-0.0394,-0.0301,-0.0214,-0.0119,0.0137,0.0223,0.0322,0.0386,0.0495,0.0499,0.0436,0.0445,0.0433,0.0423,0.0447,0.0442,0.0496,0.0496,0.0495,0,-0.0607,-0.0601,-0.0581,-0.0564,-0.0546,-0.0501,-0.0478,-0.0431,-0.0341,-0.0309,-0.0288,-0.0018,0.0119,0.0256,0.027,0.0362,0.0398,0.0423,0.042,0.0412,0.0406,0.0434,0.043,0.0485,0.0486,0.0488,0.0489,0,-0.0602,-0.0594,-0.0588,-0.056,-0.0533,-0.051,-0.0459,-0.0423,-0.0376,-0.0329,-0.0208,-0.0085,0.007,0.0143,0.0234,0.0303,0.0351,0.0383,0.04,0.0378,0.0413,0.0413,0.047,0.0474,0.0477,0.048,0,0,-0.0617,-0.059,-0.0589,-0.058,-0.0532,-0.0512,-0.0467,-0.0413,-0.0387,-0.0308,-0.0264,-0.0079,-0.004,0.0076,0.018,0.0199,0.0164,0.0277,0.0283,0.0229,0.0197,0.0229,0.0234,0.0176,0.0176,0.0175,0.0225,0,-0.0616,-0.0603,-0.0582,-0.0561,-0.0547,-0.0506,-0.0473,-0.0422,-0.0366,-0.0316,-0.0223,-0.0122,-0.0052,0.0008,0.0028,0.0161,0.0162,0.015,0.0297,0.0302,0.0269,0.0234,0.0232,0.0277,0.0226,0.0226,0.0226,0,-0.0616,-0.0612,-0.0597,-0.0575,-0.0564,-0.0546,-0.0504,-0.0466,-0.0393,-0.0348,-0.0282,-0.0194,-0.0112,-0.0075,0.0044,0.0036,0.0108,0.017,0.0173,0.0294,0.0335,0.0309,0.0281,0.0228,0.0228,0.0228,0.0228,0,-0.0649,-0.0623,-0.0621,-0.0611,-0.0574,-0.0563,-0.0542,-0.0481,-0.0453,-0.0378,-0.0348,-0.0253,-0.0187,-0.0116,0.0034,0.0039,0.0146,0.0159,0.0241,0.0245,0.0325,0.0337,0.0201,0.0201,0.02,0.02,0.02,0,-0.0662,-0.066,-0.0643,-0.0642,-0.0646,-0.0603,-0.0593,-0.0556,-0.0501,-0.0462,-0.0378,-0.0319,-0.0195,-0.0102,0.0002,0.0132,0.011,0.0232,0.0255,0.0249,0.0252,0.0296,0.0306,0.0202,0.0202,0.0201,0.0201,0,-0.0695,-0.0679,-0.0686,-0.0667,-0.0664,-0.0671,-0.0644,-0.063,-0.0574,-0.0523,-0.0501,-0.0368,-0.0237,-0.0118,0.0031,0.0104,0.0215,0.0262,0.0258,0.0279,0.0313,0.0312,0.0341,0.0343,0.0344,0.0345,0.0346,0,-0.0706,-0.0715,-0.0726,-0.0737,-0.0731,-0.0732,-0.0729,-0.068,-0.0655,-0.0536,-0.0509,-0.0371,-0.024,-0.0029,0.0118,0.0266,0.0263,0.0338,0.0338,0.0305,0.0325,0.0322,0.032,0.0349,0.035,0.0351,0.0351,0,-0.0734,-0.0747,-0.0757,-0.0787,-0.0797,-0.0804,-0.0788,-0.0776,-0.0693,-0.063,-0.0495,-0.0379,-0.0154,0.0037,0.0218,0.0303,0.031,0.0357,0.0317,0.0314,0.0317,0.0335,0.0332,0.0357,0.0357,0.0356,0.0356,0.0356,-0.0759,-0.0783,-0.0802,-0.0826,-0.0845,-0.0848,-0.0838,-0.0797,-0.074,-0.0605,-0.0503,-0.0308,-0.0136,0.015,0.0277,0.0391,0.039,0.0415,0.0411,0.0406,0.0398,0.0403,0.0459,0.0459,0.0459,0.0459,0.0459,0,-0.0774,-0.0795,-0.083,-0.0856,-0.0878,-0.0877,-0.0851,-0.0814,-0.0729,-0.058,-0.0445,-0.0234,-0.0022,0.0157,0.0358,0.0463,0.0445,0.0467,0.0427,0.0421,0.0416,0.0406,0.047,0.0471,0.0471,0.0471,0,0,-0.0778,-0.0808,-0.0826,-0.0864,-0.0883,-0.0877,-0.0853,-0.0787,-0.0675,-0.0507,-0.0352,-0.0212,0.0022,0.0144,0.0279,0.0395,0.0375,0.0397,0.0381,0.0314,0.0308,0.0385,0.0365,0,0,0,0,0]}],[{"header":{"parameterUnit":"m.s-1","parameterCategory":2,"la1":30.2991,"la2":30.254,"lo1":-89.0895,"lo2":-89.0444,"dy":0.0017,"dx":0.0017,"nx":28,"ny":28,"refTime":"2025-08-16T03:00:00:Z","depth":"4","parameterNumber":2,"parameterNumberName":"U-component_of_CURRENTS"},"data":[0,0,0,0,0,0,0,0,0,0,0,0,0,0,0,0,0,0,0,0,0,0,0,0,0,0,0,0,0,0,0,0,0,0,0,0,0,0,0,0,0,0,0,0,0,0,0,0,0,0,0,0,0,0,0,0,0,0,-0.1071,-0.1071,0,-0.1102,-0.1103,-0.1104,-0.1142,-0.1142,-0.1142,-0.1143,-0.1178,-0.1179,-0.118,0,0,0,0,0,0,0,0,0,0,0,0,0,-0.1106,-0.1105,-0.1071,-0.1071,-0.1071,-0.1102,-0.1103,-0.1104,-0.1142,-0.1142,-0.1142,-0.1143,-0.1178,-0.1179,-0.118,0,0,0,0,0,0,0,0,0,0,0,0,0,-0.1113,-0.1105,-0.1071,-0.1091,-0.1093,-0.1102,-0.1103,-0.1104,-0.1142,-0.1142,-0.1142,-0.1143,-0.1178,-0.1179,-0.118,-0.118,0,0,-0.1183,-0.1184,0,0,0,0,0,0,0,0,-0.1113,-0.1112,-0.1088,-0.1089,-0.1091,-0.1115,-0.1128,-0.1128,-0.1142,-0.1127,-0.1143,-0.1143,-0.1154,-0.1158,-0.1168,-0.1181,-0.1183,-0.1183,-0.1184,-0.1184,-0.1185,0,0,0,0,0,0,0,-0.1112,-0.1111,-0.1088,-0.1088,-0.109,-0.1119,-0.112,-0.1129,-0.1142,-0.1129,-0.113,-0.1127,-0.1156,-0.1167,-0.1169,-0.1183,-0.1183,-0.1184,-0.1185,-0.1185,-0.1233,-0.1233,0,0,0,0,0,0,-0.1096,-0.111,-0.1086,-0.1088,-0.1099,-0.1118,-0.1119,-0.111,-0.1142,-0.1146,-0.1127,-0.1129,-0.1165,-0.1168,-0.1171,-0.1208,-0.1184,-0.1185,-0.1186,-0.1232,-0.1233,-0.1233,0,0,0,0,0,0,-0.1097,-0.1094,-0.1085,-0.1098,-0.1098,-0.1116,-0.1106,-0.1111,-0.1141,-0.114,-0.1145,-0.1154,-0.1166,-0.1169,-0.1206,-0.1208,-0.1186,-0.1187,-0.1231,-0.1232,-0.1233,-0.1259,0,0,0,0,0,0,-0.1098,-0.1093,-0.11,-0.1096,-0.1096,-0.11,-0.1105,-0.1111,-0.1135,-0.1139,-0.1164,-0.1167,-0.1166,-0.1204,-0.1207,-0.1209,-0.1188,-0.123,-0.1232,-0.1233,-0.1257,-0.126,-0.1263,0,0,0,0,0,-0.1099,-0.1102,-0.11,-0.1098,-0.1098,-0.11,-0.1105,-0.1121,-0.1136,-0.1151,-0.1178,-0.1167,-0.1212,-0.1206,-0.1209,-0.1211,-0.123,-0.1231,-0.1233,-0.1256,-0.126,-0.1263,0,0,0,0,0,0,-0.1124,-0.1105,-0.1103,-0.1101,-0.1104,-0.1106,-0.1126,-0.1133,-0.1167,-0.1182,-0.1186,-0.1191,-0.1218,-0.1216,-0.121,-0.1228,-0.1214,-0.1216,-0.1231,-0.1234,-0.1237,-0.1234,-0.1189,0,0,0,0,0,-0.1128,-0.1124,-0.1112,-0.1113,-0.1118,-0.1127,-0.1137,-0.1145,-0.1163,-0.118,-0.1195,-0.1211,-0.1222,-0.1232,-0.1242,-0.126,-0.1257,-0.126,-0.1263,-0.1265,-0.1264,-0.1287,-0.1292,-0.1238,-0.1238,-0.1238,0,0,-0.1137,-0.1126,-0.1126,-0.1119,-0.1128,-0.114,-0.1137,-0.1155,-0.1168,-0.1177,-0.1218,-0.1227,-0.1231,-0.1251,-0.1261,-0.1253,-0.1276,-0.1267,-0.1269,-0.1267,-0.1289,-0.1294,-0.1299,-0.1239,-0.1238,-0.1238,0,0,-0.1151,-0.1147,-0.1153,-0.1156,-0.1163,-0.1166,-0.1174,-0.1186,-0.1201,-0.1232,-0.1238,-0.1254,-0.1279,-0.1276,-0.1277,-0.1303,-0.1293,-0.1304,-0.1316,-0.1338,-0.1343,-0.1347,-0.1333,-0.1336,-0.1304,-0.1304,-0.1304,0,-0.1169,-0.1164,-0.1158,-0.1167,-0.1176,-0.118,-0.1197,-0.1207,-0.123,-0.1244,-0.1251,-0.1289,-0.1286,-0.1302,-0.1304,-0.1308,-0.1314,-0.1302,-0.1342,-0.1346,-0.135,-0.1335,-0.1338,-0.1305,-0.1305,-0.1305,-0.1305,0,-0.1178,-0.1188,-0.1196,-0.1203,-0.1216,-0.123,-0.1235,-0.1256,-0.1276,-0.1281,-0.1313,-0.1319,-0.1339,-0.1332,-0.1326,-0.1344,-0.1337,-0.1345,-0.1333,-0.1357,-0.134,-0.1342,-0.1307,-0.1306,-0.1306,-0.1306,0,0,-0.1177,-0.1199,-0.1204,-0.1219,-0.1237,-0.1246,-0.1273,-0.129,-0.1314,-0.1333,-0.1362,-0.1365,-0.1372,-0.1373,-0.1366,-0.1373,-0.1388,-0.1371,-0.1372,-0.1356,-0.1422,-0.129,-0.1279,-0.1417,-0.1418,-0.1418,-0.1393,0,-0.1189,-0.1212,-0.1223,-0.1257,-0.127,-0.1289,-0.1314,-0.1332,-0.1351,-0.138,-0.1379,-0.1405,-0.1386,-0.14,-0.1406,-0.1397,-0.1399,-0.1392,-0.1401,-0.14,-0.128,-0.1279,-0.1421,-0.1395,-0.1395,-0.1395,-0.1396,0,-0.1184,-0.1203,-0.1236,-0.128,-0.1292,-0.1318,-0.1361,-0.1384,-0.1413,-0.143,-0.1453,-0.1458,-0.146,-0.1451,-0.1449,-0.1453,-0.1438,-0.1426,-0.1426,-0.1295,-0.1273,-0.1369,-0.14,-0.1399,-0.1399,-0.1399,-0.1399,0,-0.1162,-0.1209,-0.1238,-0.1251,-0.1301,-0.1332,-0.1365,-0.1401,-0.1423,-0.1463,-0.1482,-0.1501,-0.1504,-0.1509,-0.1459,-0.1474,-0.1448,-0.1469,-0.1333,-0.1323,-0.1441,-0.1437,-0.1475,-0.1475,-0.1475,-0.1475,-0.1475,0,-0.1143,-0.1172,-0.1235,-0.1248,-0.1298,-0.1336,-0.1387,-0.142,-0.1464,-0.1473,-0.1508,-0.1502,-0.1524,-0.1501,-0.1476,-0.1385,-0.1462,-0.1323,-0.1309,-0.1449,-0.1446,-0.1441,-0.1438,-0.1474,-0.1474,-0.1475,-0.1475,0,-0.1103,-0.1142,-0.1185,-0.1257,-0.1284,-0.132,-0.1398,-0.1419,-0.1472,-0.1485,-0.1498,-0.1512,-0.1464,-0.145,-0.1429,-0.1377,-0.1325,-0.1276,-0.1393,-0.1388,-0.1187,-0.1185,-0.1141,-0.1136,-0.1132,-0.1128,-0.1125,0,-0.108,-0.1096,-0.1185,-0.1209,-0.1246,-0.1307,-0.1337,-0.1411,-0.1421,-0.1458,-0.1443,-0.1427,-0.1411,-0.1264,-0.1277,-0.1211,-0.1195,-0.1173,-0.1206,-0.1162,-0.1154,-0.1158,-0.1162,-0.1119,-0.1118,-0.1117,-0.1115,0,-0.104,-0.1082,-0.1115,-0.1161,-0.1203,-0.1244,-0.1289,-0.129,-0.1343,-0.1414,-0.1334,-0.1287,-0.1218,-0.1169,-0.1108,-0.1073,-0.1196,-0.113,-0.114,-0.1171,-0.1135,-0.1132,-0.114,-0.1101,-0.1103,-0.1105,-0.1105,0,-0.1012,-0.1023,-0.106,-0.109,-0.1141,-0.1136,-0.1183,-0.117,-0.1191,-0.1233,-0.1197,-0.1169,-0.1192,-0.1094,-0.1044,-0.0983,-0.0982,-0.0971,-0.0989,-0.1005,-0.0969,-0.0905,-0.0776,0,0,0,0,0,-0.0967,-0.0953,-0.0979,-0.0992,-0.1037,-0.1053,-0.1118,-0.1158,-0.1216,-0.1122,-0.1154,-0.1076,-0.0984,-0.0981,-0.0886,-0.0987,-0.0992,-0.0876,-0.0992,-0.1022,-0.1038,-0.1006,0,0,0,0,0,0,-0.093,-0.0945,-0.0942,-0.0894,-0.0877,-0.0902,-0.0934,-0.0978,-0.0934,-0.0998,-0.0947,-0.1003,-0.0926,-0.0996,-0.0855,-0.0854,-0.0904,-0.0878,-0.0874,-0.1013,-0.1028,-0.1041,-0.1014,0,0,0,0,0]},{"header":{"parameterUnit":"m.s-1","parameterCategory":2,"la1":30.2991,"la2":30.254,"lo1":-89.0895,"lo2":-89.0444,"dy":0.0017,"dx":0.0017,"nx":28,"ny":28,"refTime":"2025-08-16T03:00:00:Z","depth":"4","parameterNumber":3,"parameterNumberName":"V-component_of_CURRENTS"},"data":[0,0,0,0,0,0,0,0,0,0,0,0,0,0,0,0,0,0,0,0,0,0,0,0,0,0,0,0,0,0,0,0,0,0,0,0,0,0,0,0,0,0,0,0,0,0,0,0,0,0,0,0,0,0,0,0,0,0,-0.0458,-0.0457,0,-0.0441,-0.0441,-0.0441,-0.0454,-0.0455,-0.0455,-0.0456,-0.0434,-0.0433,-0.0432,0,0,0,0,0,0,0,0,0,0,0,0,0,-0.0454,-0.0454,-0.0458,-0.0457,-0.0457,-0.0441,-0.0441,-0.0441,-0.0454,-0.0455,-0.0455,-0.0456,-0.0435,-0.0434,-0.0432,0,0,0,0,0,0,0,0,0,0,0,0,0,-0.0449,-0.0454,-0.0458,-0.0461,-0.0461,-0.0441,-0.0441,-0.0441,-0.0454,-0.0455,-0.0455,-0.0456,-0.0435,-0.0434,-0.0432,-0.0409,0,0,-0.0428,-0.0427,0,0,0,0,0,0,0,0,-0.045,-0.045,-0.0461,-0.0461,-0.0461,-0.0449,-0.0431,-0.0429,-0.0454,-0.0458,-0.0456,-0.0456,-0.0438,-0.0436,-0.0433,-0.0408,-0.0407,-0.0427,-0.0427,-0.0426,-0.0426,0,0,0,0,0,0,0,-0.045,-0.045,-0.0452,-0.046,-0.046,-0.0447,-0.0447,-0.0431,-0.0445,-0.0458,-0.0458,-0.0454,-0.0438,-0.0434,-0.0433,-0.0407,-0.0428,-0.0426,-0.0425,-0.0425,-0.0398,-0.0399,0,0,0,0,0,0,-0.0451,-0.0451,-0.0453,-0.0452,-0.0455,-0.0446,-0.0447,-0.0453,-0.0445,-0.0444,-0.0454,-0.0455,-0.0437,-0.0434,-0.0432,-0.0423,-0.0426,-0.0425,-0.0424,-0.0398,-0.0398,-0.0399,0,0,0,0,0,0,-0.0451,-0.0452,-0.0454,-0.0449,-0.0448,-0.0446,-0.0452,-0.0452,-0.0458,-0.0442,-0.0442,-0.046,-0.0437,-0.0434,-0.0413,-0.0421,-0.0424,-0.0423,-0.0398,-0.0398,-0.0399,-0.0393,0,0,0,0,0,0,-0.0452,-0.0453,-0.0459,-0.045,-0.0448,-0.0445,-0.0452,-0.0452,-0.0453,-0.0455,-0.0447,-0.0445,-0.0437,-0.0415,-0.0412,-0.0419,-0.0421,-0.0398,-0.0398,-0.0398,-0.0392,-0.0393,-0.0393,0,0,0,0,0,-0.0452,-0.0455,-0.046,-0.046,-0.0458,-0.0444,-0.0443,-0.0444,-0.0453,-0.0452,-0.0441,-0.0446,-0.0416,-0.0413,-0.0409,-0.0417,-0.0398,-0.0398,-0.0398,-0.0392,-0.0393,-0.0393,0,0,0,0,0,0,-0.0455,-0.0456,-0.0462,-0.0466,-0.0458,-0.0446,-0.0446,-0.0447,-0.0438,-0.0443,-0.0433,-0.0429,-0.0419,-0.0416,-0.0414,-0.0413,-0.0414,-0.0414,-0.0411,-0.0411,-0.0411,-0.0401,-0.042,0,0,0,0,0,-0.046,-0.0468,-0.0459,-0.0464,-0.0461,-0.0456,-0.0452,-0.0452,-0.0441,-0.044,-0.0431,-0.0425,-0.0416,-0.0412,-0.0402,-0.039,-0.036,-0.0399,-0.0399,-0.0399,-0.0389,-0.0332,-0.0325,-0.04,-0.04,-0.04,0,0,-0.0463,-0.0465,-0.047,-0.0466,-0.0463,-0.0455,-0.0456,-0.0451,-0.0449,-0.0436,-0.0429,-0.042,-0.0412,-0.0402,-0.0399,-0.0401,-0.0364,-0.0399,-0.0399,-0.0389,-0.0331,-0.0323,-0.0317,-0.04,-0.04,-0.04,0,0,-0.0465,-0.0475,-0.0478,-0.0472,-0.0465,-0.046,-0.046,-0.0449,-0.0449,-0.0436,-0.043,-0.0416,-0.0409,-0.0396,-0.0392,-0.0385,-0.0364,-0.04,-0.039,-0.0335,-0.0327,-0.0321,-0.0278,-0.0268,-0.0402,-0.0402,-0.0402,0,-0.0468,-0.0475,-0.0474,-0.047,-0.0466,-0.0464,-0.0458,-0.0454,-0.0438,-0.0428,-0.0438,-0.0407,-0.0404,-0.0378,-0.0383,-0.0383,-0.0351,-0.0389,-0.0332,-0.0325,-0.0318,-0.0276,-0.0264,-0.0401,-0.0401,-0.0401,-0.0401,0,-0.0467,-0.0473,-0.0472,-0.0472,-0.0466,-0.0462,-0.0452,-0.0446,-0.0449,-0.0437,-0.0414,-0.0397,-0.0377,-0.0385,-0.0384,-0.0342,-0.0335,-0.0335,-0.0327,-0.0309,-0.0267,-0.0255,-0.0401,-0.0401,-0.0401,-0.0401,0,0,-0.0473,-0.0473,-0.0475,-0.0477,-0.0468,-0.0464,-0.0454,-0.0438,-0.0428,-0.0415,-0.039,-0.0379,-0.0363,-0.0356,-0.0349,-0.0311,-0.0244,-0.0306,-0.0303,-0.0254,-0.0122,-0.0139,-0.0127,-0.0227,-0.0225,-0.0223,-0.0114,0,-0.0474,-0.0476,-0.0471,-0.0472,-0.0472,-0.0461,-0.0452,-0.0437,-0.0423,-0.0396,-0.0372,-0.035,-0.0355,-0.0345,-0.0302,-0.0262,-0.021,-0.0273,-0.0154,-0.0151,-0.0159,-0.0113,-0.0216,-0.0105,-0.0102,-0.01,-0.0098,0,-0.0475,-0.0479,-0.0483,-0.0478,-0.0475,-0.0474,-0.0457,-0.0446,-0.0404,-0.039,-0.035,-0.0326,-0.0275,-0.0282,-0.0176,-0.0215,-0.0162,-0.0128,-0.0123,-0.0129,-0.0144,-0.0125,-0.0076,-0.0078,-0.0079,-0.0081,-0.0082,0,-0.0489,-0.0486,-0.0495,-0.0494,-0.0485,-0.0484,-0.0479,-0.0447,-0.0436,-0.0381,-0.0362,-0.0289,-0.026,-0.0178,-0.012,-0.0136,0.0,-0.0011,0.0032,0.003,0.001,0.0001,0.0091,0.0091,0.0091,0.009,0.009,0,-0.0492,-0.05,-0.0508,-0.0514,-0.0524,-0.0505,-0.0502,-0.0482,-0.0442,-0.0415,-0.0362,-0.0319,-0.023,-0.0152,-0.0091,0.0005,0.0031,0.0053,0.0067,0.0006,-0.0004,0.0018,0.0009,0.0095,0.0094,0.0093,0.0092,0,-0.0505,-0.0509,-0.0526,-0.053,-0.0535,-0.0545,-0.0539,-0.0529,-0.0487,-0.0447,-0.0429,-0.0333,-0.0226,-0.0138,-0.0004,0.0034,0.0128,0.0159,0.0087,0.0093,0.0117,0.0106,0.0231,0.0231,0.0232,0.0232,0.0232,0,-0.0508,-0.052,-0.0553,-0.0572,-0.0579,-0.0591,-0.0597,-0.0564,-0.0545,-0.0452,-0.0428,-0.0316,-0.0246,-0.0068,0.0023,0.0159,0.0166,0.0214,0.0171,0.0135,0.0136,0.0124,0.0113,0.0233,0.0233,0.0233,0.0233,0,-0.0518,-0.0541,-0.056,-0.0603,-0.0626,-0.064,-0.0639,-0.0622,-0.0562,-0.053,-0.0413,-0.0307,-0.0182,-0.0056,0.0047,0.014,0.018,0.0219,0.0219,0.0178,0.0139,0.0137,0.0126,0.0235,0.0235,0.0235,0.0234,0,-0.0533,-0.0557,-0.0592,-0.0622,-0.066,-0.0667,-0.0664,-0.062,-0.0589,-0.0478,-0.0436,-0.0293,-0.0205,-0.0063,0.0034,0.012,0.0137,0.0149,0.0152,0.0151,0.0081,0.0017,0.0108,0,0,0,0,0,-0.0539,-0.0564,-0.0602,-0.0637,-0.0675,-0.0688,-0.0678,-0.066,-0.0599,-0.0522,-0.0474,-0.0352,-0.0178,-0.0097,-0.0011,0.0028,0.0137,0.0128,0.0148,0.0244,0.0242,0.017,0,0,0,0,0,0,-0.0544,-0.0585,-0.0601,-0.0642,-0.0664,-0.0693,-0.0685,-0.0643,-0.0591,-0.0518,-0.0426,-0.0352,-0.019,-0.0233,-0.0017,0.0013,0.0033,0.0215,0.0216,0.0245,0.0243,0.0242,0.0167,0,0,0,0,0]}]]